sat.trackr.live / text

‹ back to catalog

STARLINK-2253

NORAD 48596 · 2021-041AV

PAYLOAD ACTIVE UNKNOWN

§ Identity

Operator
Country
US
Launch date
2021-05-15
Launch site
AFETR
Launch vehicle
Mass (kg)
RCS (m²)

Purposes: comms

External: N2YO · Heavens-Above · Gunter

§ Orbital elements

Epoch: 2026-05-25T03:36:31.682880Z

Period
94.01 min
Inclination
53.1585°
Eccentricity
0.0001192
Mean motion
15.31705128 rev/d
Perigee alt
469.9 km
Apogee alt
471.5 km
Semi-major
6,848.9 km
B*
3.3067e-5
RAAN
143.9227°
Arg perigee
84.8465°
Mean anomaly
275.2672°
Rev number
27,726

§ Raw data

STARLINK-22531 48596U 21041AV  26145.15036670  .00000661  00000+0  33067-4 0  99912 48596  53.1585 143.9227 0001192  84.8465 275.2672 15.31705128277265

JSON: /api/v1/satellites/48596 · /tle

For live sub-satellite position, see the globe view (requires WebGL).

§ Visibility from observer

Set your observer location to see the next 7 days of passes ≥ 10°. The values pass through the URL so the page stays shareable.

No JS? Fill the form by hand. The geolocation button needs JavaScript.